Regional Weather Roundup
Issued by NWS Charleston, SC

Current Version | Previous Version | Graphics & Text | Print | Product List | Glossary On
Versions: 1 2 3 4 5 6 7 8 9 10 11 12 13 14 15 16 17 18 19 20 21 22 23 24 25 26 27 28 29 30 31 32 33 34 35 36 37 38 39 40 41 42 43 44 45 46 47 48 49 50
000 ASUS42 KCHS 271426 RWRCHS REGIONAL WEATHER ROUNDUP NATIONAL WEATHER SERVICE CHARLESTON SC 900 AM EST MON FEB 27 2017 NOTE: "FAIR" INDICATES FEW OR NO CLOUDS BELOW 12,000 FEET WITH NO SIGNIFICANT WEATHER AND/OR OBSTRUCTIONS TO VISIBILITY. NOT ALL STATIONS ARE QUALITY CONTROLLED. USE DATA WITH CAUTION... ESPECIALLY DEWPOINT OBSERVATIONS. SCZ027-030-031-034>040-042>050-271500- ...SOUTHEAST SOUTH CAROLINA... CITY SKY/WX TMP DP RH WIND PRES REMARKS N CHARLESTON MOSUNNY 63 44 50 SE12 30.35R WATERFRONT PRK N/A 62 50 64 SE15 30.31S MOUNT PLEASANT FAIR 64 46 52 E8 30.36R JOHNS ISLAND FAIR 66 50 55 E9 30.35R PINOPOLIS N/A 54 45 71 VRB3 30.27R MONCKS CORNER FAIR 59 41 51 E3 30.37R SUMMERVILLE FAIR 57 45 62 CALM 30.38R BEAUFORT MCAS MOSUNNY 64 48 56 E12 30.33R BEAUFORT ARPT FAIR 64 48 55 E9 30.33R HILTON HEAD IS NOT AVBL WALTERBORO SUNNY 59 43 55 E10 30.36R ALLENDALE FAIR 57 45 62 VRB3 30.35R ...SOUTHERN MIDLANDS AND PEE DEE... CITY SKY/WX TMP DP RH WIND PRES REMARKS GEORGETOWN FAIR 63 45 51 E12 30.37R KINGSTREE FAIR 52 39 62 CALM 30.40R ORANGEBURG MOSUNNY 51 40 65 E7 30.37R BARNWELL FAIR 55 45 67 NE5 30.37R AIKEN FAIR 50 37 62 E6 30.41R MANNING FAIR 52 37 58 MISG 30.39R COLUMBIA MOSUNNY 48 39 71 CALM 30.39R SUMTER PTSUNNY 50 39 67 E5 30.37R FLORENCE SUNNY 50 41 71 NE5 30.42R MYRTLE BEACH SUNNY 61 43 51 E12 30.40R N MYRTLE BEACH SUNNY 59 41 51 E12G17 30.39R $$ GAZ063-065-086>088-099>101-113>116-118-119-134>141-150-271500- ...SOUTHEAST GEORGIA... CITY SKY/WX TMP DP RH WIND PRES REMARKS SAVANNAH ARPT MOSUNNY 64 49 57 E14 30.31R HUNTER AAF SUNNY 66 56 71 E9 30.28R FORT STEWART PTSUNNY 60 49 67 CALM 30.29R STATESBORO MOSUNNY 58 49 73 E3 30.32F SYLVANIA SUNNY N/A N/A N/A E7 30.34S CLAXTON FAIR N/A N/A N/A CALM 30.32S ...CSRA...CENTRAL AND FAR SOUTHEAST GEORGIA... CITY SKY/WX TMP DP RH WIND PRES REMARKS THOMSON SUNNY 52 43 72 CALM 30.39F AUGUSTA-BUSH SUNNY 50 42 74 CALM 30.37R AUGUSTA-DANIEL SUNNY 51 37 58 E6 30.37R SWAINSBORO FAIR 57 45 62 E8 30.34R VIDALIA CLOUDY 59 50 72 E8 30.32R EASTMAN FAIR 54 38 54 CALM 30.35R HAZLEHURST FAIR 62 47 58 SE5 30.30R ALMA SUNNY 57 47 69 E5 30.29R WAYCROSS SUNNY 64 54 70 SE6 30.30R JESUP FAIR 61 50 67 NE5 30.30R BAXLEY FAIR 59 50 72 CALM 30.31R BRUNSWICK SUNNY 70 59 68 SE13G18 30.29R SAINT SIMONS SUNNY 68 57 68 SE10 30.28R $$ SCZ027-028-034-036>038-045-046-048>050-GAZ119-141-271500- ...LAKE AND SUPPLEMENTAL COASTAL OBSERVATIONS... STATION/POSITION TIME TEMP WIND PRES WAVE SWELL AIR SEA DIR/SP/G HT/PER HT/PER/DIR (UTC) (F) (DEG/KT/KT) (MB) (FT/S) (FT/S/D) WINYAH BAY 1330 60 100/ 12 1028.0R LAKE MURRAY 1320 48 CALM / 2 1028.1R ACE BASIN NERRS 1330 62 110/ 5 1026.0S FORT PULASKI 1400 63 62 100/ 12/ 14 1026.4 SAPELO ISLAND 1400 68 130/ 9 1025.0 $$ ANZ835-935-AMZ111-154-330-350-352-354-370-450-454-472-271500- ...C-MAN AND BUOY OBSERVATIONS... STATION/POSITION TIME TEMP WIND PRES WAVE SWELL AIR SEA DIR/SP/G HT/PER HT/PER/DIR (UTC) (F) (DEG/KT/KT) (MB) (FT/S) (FT/S/D) BUOY 41004 1350 66 69 110/ 16/ 19 1026.5S 3/ 9 3/110/ 9 BUOY 41008 1350 66 62 120/ 14/ 16 1025.0S 3/ 9 2/ 90/ 9 FOLLY BEACH CMAN 1400 62 100/ 9/ 11 1027.9R CAPERS NEARSHORE 1308 62 60 130/ 14/ 19 1026.7S FRIPP NEARSHORE 1408 63 61 100/ 12/ 16 1026.4R STATION/POSITION TIME TEMP WIND PRES WAVE SWELL AIR SEA DIR/SP/G HT/PER HT/PER/DIR (UTC) (F) (DEG/KT/KT) (MB) (FT/S) (FT/S/D) 5E ST. MARYS GA 1400 64 N/A 3/ 4 FRYING PAN BUOY 1410 65 69 110/ 16/ 19 1028.3 BUOY 41025 1350 60 71 90/ 8/ 10 1030.8F 3/ 8 3/ 90/ 8 CAPE LOOKOUT NC 1400 60 80/ 11/ 12 1029.6S BUOY 41002 1350 66 70 80/ 12/ 17 1029.0R 4/ 8 3/ 60/ 8 BUOY 41010 NOT AVBL ST AUGUSTINE FL 1400 68 65 130/ 14/ 15 1025.6F $$

USA.gov is the U.S. government's official web portal to all federal, state and local government web resources and services.